Asheville, NC

5:31 AM EDT on July 26, 2017 (GMT -0400)
Asheville Regional

Weather History for KAVL - April, 2009

Change the Weather History Date:

Friday, April 3, 2009

  Actual Average Record
Temperature  
Mean Temperature 54 °F 52 °F  
Max Temperature 63 °F 64 °F 88 °F (1963)
Min Temperature 44 °F 40 °F 23 °F (1936)
Degree Days  
Heating Degree Days 11 13  
Month to date heating degree days 23 41  
Since 1 July heating degree days 3862 3813  
Cooling Degree Days 0 0  
Month to date cooling degree days 0 0  
Year to date cooling degree days 0 1  
Growing Degree Days 4 (Base 50)    
Moisture  
Dew Point 45 °F    
Average Humidity 74    
Maximum Humidity 100    
Minimum Humidity 48    
Precipitation  
Precipitation 0.10 in 0.11 in 1.83 in (2000)
Month to date precipitation 0.50 0.35  
Year to date precipitation 8.84 11.61  
Snow  
Snow 0.00 in 0.10 in 11.50 in (1987)
Month to date snowfall 0.0 0.2  
Since 1 July snowfall 6.1 9.4  
Snow Depth 0.00 in    
Sea Level Pressure  
Sea Level Pressure 29.50 in    
Wind  
Wind Speed 13 mph (West)    
Max Wind Speed 28 mph    
Max Gust Speed 33 mph    
Visibility 10 miles    
Events Rain    
T = Trace of Precipitation, MM = Missing Value Source: NWS Daily Summary

Daily Weather History Graph

Daily Weather History Graph

Search for Another Location

Airport or City:

Trip Planner

Search our weather history database for the weather conditions in past years. The results will help you decide how hot, cold, wet, or windy it might be!

Date:

Astronomy

Apr. 03, 2009 Rise Set
Actual Time 7:13 AM EDT 7:53 PM EDT
Civil Twilight 6:47 AM EDT 8:19 PM EDT
Nautical Twilight 6:17 AM EDT 8:49 PM EDT
Astronomical Twilight 5:46 AM EDT 9:20 PM EDT
Moon 1:43 PM EDT (4/3) 3:31 AM EDT (4/3)
Length of Visible Light 13h 31m
Length of Day
12h 39m
Waxing Gibbous, 62% of the Moon is Illuminated
Apr 3
Waxing Gibbous
Apr 9
Full
Apr 17
Last Quarter
Apr 24
New
May 1
First Quarter

Hourly Weather History & Observations

Time (EDT) Temp. Windchill Dew Point Humidity Pressure Visibility Wind Dir Wind Speed Gust Speed Precip Events Conditions
12:54 AM 55.0 °F - 54.0 °F 96% 29.41 in 9.0 mi SE 8.1 mph - 0.01 in   Overcast
12:56 AM 55.4 °F - 53.6 °F 94% 29.45 in 10.0 mi SE 9.2 mph - 0.00 in Rain Light Rain
1:07 AM 55.4 °F - 53.6 °F 94% 29.44 in 10.0 mi SE 9.2 mph - 0.01 in Rain Light Rain
1:29 AM 55.4 °F - 53.6 °F 94% 29.42 in 10.0 mi SE 10.4 mph 18.4 mph 0.01 in Rain Light Rain
1:54 AM 55.0 °F - 54.0 °F 96% 29.34 in 10.0 mi SSE 13.8 mph 21.9 mph 0.02 in Rain Light Rain
2:19 AM 55.4 °F - 53.6 °F 94% 29.38 in 10.0 mi SSE 15.0 mph 23.0 mph 0.00 in Rain Light Rain
2:54 AM 55.9 °F - 55.0 °F 97% 29.33 in 5.0 mi SSE 9.2 mph - 0.04 in Rain Light Rain
3:34 AM 57.2 °F - 53.6 °F 88% 29.36 in 10.0 mi South 12.7 mph 21.9 mph 0.02 in Rain Light Rain
3:41 AM 55.4 °F - 53.6 °F 94% 29.35 in 9.0 mi South 10.4 mph 21.9 mph 0.02 in Rain Light Rain
3:54 AM 57.0 °F - 54.0 °F 89% 29.31 in 9.0 mi SSW 10.4 mph 19.6 mph 0.02 in Rain Light Rain
4:26 AM 57.2 °F - 51.8 °F 82% 29.36 in 10.0 mi SSW 15.0 mph 24.2 mph 0.02 in Rain Light Rain
4:54 AM 55.0 °F - 51.1 °F 86% 29.30 in 10.0 mi South 9.2 mph - 0.02 in   Mostly Cloudy
5:54 AM 52.0 °F - 44.1 °F 74% 29.33 in 10.0 mi WSW 4.6 mph - N/A   Clear
6:54 AM 51.1 °F - 42.1 °F 71% 29.36 in 10.0 mi SW 5.8 mph - N/A   Partly Cloudy
7:54 AM 51.1 °F - 43.0 °F 74% 29.39 in 10.0 mi Calm Calm - N/A   Clear
8:54 AM 57.9 °F - 43.0 °F 58% 29.40 in 10.0 mi West 13.8 mph 26.5 mph N/A   Overcast
9:54 AM 57.0 °F - 44.1 °F 62% 29.44 in 10.0 mi West 9.2 mph - N/A   Overcast
10:54 AM 57.9 °F - 43.0 °F 58% 29.46 in 10.0 mi WNW 8.1 mph - N/A   Overcast
11:54 AM 60.1 °F - 42.1 °F 51% 29.49 in 10.0 mi WNW 12.7 mph 23.0 mph N/A   Mostly Cloudy
12:54 PM 62.1 °F - 43.0 °F 50% 29.53 in 10.0 mi NW 17.3 mph 26.5 mph N/A   Scattered Clouds
1:54 PM 57.0 °F - 41.0 °F 55% 29.56 in 10.0 mi North 18.4 mph 28.8 mph N/A   Mostly Cloudy
2:54 PM 57.0 °F - 41.0 °F 55% 29.58 in 10.0 mi North 19.6 mph 26.5 mph N/A   Partly Cloudy
3:54 PM 55.0 °F - 39.0 °F 55% 29.62 in 10.0 mi North 21.9 mph 31.1 mph N/A   Scattered Clouds
4:54 PM 55.9 °F - 39.9 °F 55% 29.64 in 10.0 mi North 18.4 mph 27.6 mph N/A   Partly Cloudy
5:54 PM 51.8 °F - 39.2 °F 62% 29.70 in 10.0 mi North 20.7 mph 31.1 mph N/A   Clear
6:54 PM 50.0 °F - 39.0 °F 66% 29.71 in 10.0 mi NNW 19.6 mph 31.1 mph N/A   Clear
7:54 PM 48.9 °F - 37.9 °F 66% 29.74 in 10.0 mi NNW 18.4 mph 24.2 mph N/A   Clear
8:54 PM 46.9 °F - 39.0 °F 74% 29.77 in 10.0 mi North 10.4 mph - N/A   Clear
9:54 PM 46.0 °F 39.0 °F 37.9 °F 73% 29.80 in 10.0 mi NNW 17.3 mph 25.3 mph N/A   Clear
10:54 PM 45.0 °F 37.9 °F 37.0 °F 74% 29.82 in 10.0 mi NNW 16.1 mph 24.2 mph N/A   Clear
11:54 PM 45.0 °F 39.3 °F 33.1 °F 63% 29.82 in 10.0 mi North 11.5 mph 24.2 mph N/A   Clear